EA8TK-13 La Laguna ES current weather conditions

sailwx.info

Wind from 305 at 14 knots gusting 21

Air temperature 15.6° C
Dewpoint 12.9° C

Last reported at 2019-May-24 03:00 UTC.
Time now 2019-May-24 04:05 UTC

Location: N 28°29' W 016°18'.
View on Google Maps.

See reports from other nearby stations

  
Tides and Currents Weather Stations Pressure Air Temp Water Temp Dewpoint Dewpoint Depression Visibility Wind Speed Wind Dir Waves Ship Positions
date/time (UTC)wind fromknots sea level pressurealtimeterstation pressurevisibilityair tempwater tempwave heightnotes
2019-May-24 03:00 305 14 gusting 21 15.6
2019-May-24 02:45 303 7 gusting 19 15.6
2019-May-24 02:31 315 7 gusting 16 15.6
2019-May-24 02:15 324 6 gusting 15 15.6
2019-May-24 02:01 359 6 gusting 13 15.6
2019-May-24 01:45 289 7 gusting 17 15.6
2019-May-24 01:31 325 9 gusting 18 15.6
2019-May-24 01:15 302 8 gusting 20 15.6
2019-May-24 01:00 347 10 gusting 20 15.6
2019-May-24 00:45 359 9 gusting 20 16.1
2019-May-24 00:30 359 8 gusting 18 15.6
2019-May-24 00:15 004 13 gusting 19 15.6
2019-May-24 00:00 310 10 gusting 22 16.1
2019-May-23 23:45 299 6 gusting 16 16.1
2019-May-23 23:30 335 9 gusting 21 16.1
2019-May-23 23:16 004 13 gusting 21 16.1
2019-May-23 23:01 014 12 gusting 21 16.1
2019-May-23 22:46 023 7 gusting 19 16.1
2019-May-23 22:31 339 9 gusting 22 16.1
2019-May-23 22:16 359 9 gusting 20 16.1
2019-May-23 22:02 359 5 gusting 19 16.1
2019-May-23 21:46 359 13 gusting 26 16.1
2019-May-23 21:32 359 14 gusting 25 16.1
2019-May-23 21:17 293 10 gusting 22 16.1
2019-May-23 21:03 312 13 gusting 20 16.1
2019-May-23 20:47 311 8 gusting 19 16.1
2019-May-23 20:32 310 8 gusting 17 16.1
2019-May-23 20:17 323 10 gusting 22 16.1
2019-May-23 20:02 316 8 gusting 16 16.7
2019-May-23 19:46 359 9 gusting 19 16.7
2019-May-23 19:31 327 10 gusting 22 16.7
2019-May-23 19:16 314 9 gusting 26 16.7
2019-May-23 19:01 316 12 gusting 19 16.7
2019-May-23 18:46 342 8 gusting 19 17.2
2019-May-23 18:31 331 11 gusting 19 17.2
2019-May-23 18:16 324 14 gusting 26 17.2
2019-May-23 18:02 350 10 gusting 19 17.2
2019-May-23 17:45 024 11 gusting 19 17.8
2019-May-23 17:31 331 7 gusting 19 17.8
2019-May-23 17:16 345 9 gusting 23 17.8
2019-May-23 17:02 019 9 gusting 21 17.8
2019-May-23 16:46 012 9 gusting 19 18.3
2019-May-23 16:31 334 10 gusting 24 18.3
2019-May-23 16:16 359 11 gusting 18 18.9
2019-May-23 16:01 347 10 gusting 16 19.4
2019-May-23 15:46 354 3 gusting 13 18.9
2019-May-23 15:31 349 7 gusting 25 18.3
2019-May-23 15:16 312 7 gusting 16 18.9
2019-May-23 15:01 008 7 gusting 17 19.4
2019-May-23 14:45 323 8 gusting 18 19.4
2019-May-23 14:31 029 9 gusting 23 19.4
2019-May-23 14:16 316 6 gusting 15 19.4
2019-May-23 14:01 331 8 gusting 19 18.9
2019-May-23 13:46 305 9 gusting 18 18.9
2019-May-23 13:31 322 8 gusting 18 19.4
2019-May-23 13:16 260 9 gusting 21 19.4
2019-May-23 13:01 017 11 gusting 19 19.4
2019-May-23 12:46 354 9 gusting 19 19.4
2019-May-23 12:31 018 10 gusting 19 19.4
2019-May-23 12:15 315 7 gusting 19 19.4
2019-May-23 12:01 012 11 gusting 19 18.9
2019-May-23 11:45 354 7 gusting 19 18.9
2019-May-23 11:30 008 11 gusting 19 18.3
2019-May-23 11:16 341 13 gusting 19 18.9
2019-May-23 11:01 008 11 gusting 20 18.3
2019-May-23 10:45 008 11 gusting 22 18.3
2019-May-23 10:30 328 9 gusting 21 18.3
2019-May-23 10:15 354 12 gusting 20 17.2
2019-May-23 10:00 354 11 gusting 15 17.2
2019-May-23 09:45 345 11 gusting 18 17.8
2019-May-23 09:30 010 13 gusting 19 17.2
2019-May-23 09:15 359 12 gusting 20 16.7
2019-May-23 09:00 359 8 gusting 14 16.7
2019-May-23 08:45 354 9 gusting 17 16.7
2019-May-23 08:30 004 9 gusting 15 16.7
2019-May-23 08:15 359 7 gusting 19 16.7
2019-May-23 08:00 028 8 gusting 17 16.7
2019-May-23 07:45 033 8 gusting 13 16.1
2019-May-23 07:30 010 6 gusting 15 16.1
2019-May-23 07:16 325 9 gusting 14 16.1
2019-May-23 07:00 354 7 gusting 16 16.1
2019-May-23 06:45 354 6 gusting 14 16.1
2019-May-23 06:30 004 7 gusting 17 16.1
2019-May-23 06:15 315 6 gusting 13 16.1
2019-May-23 06:00 280 9 gusting 16 16.1
2019-May-23 05:45 359 7 gusting 21 16.1
2019-May-23 05:30 349 9 gusting 19 16.1
2019-May-23 05:15 021 11 gusting 19 16.1
2019-May-23 04:47 359 7 gusting 19 15.6
2019-May-23 04:31 349 11 gusting 20 15.6
2019-May-23 04:16 354 13 gusting 19 16.1
2019-May-23 04:02 023 11 gusting 20 16.1
2019-May-23 03:47 359 10 gusting 18 15.6
2019-May-23 03:32 350 13 gusting 19 16.1
2019-May-23 03:16 359 13 gusting 20 16.1
2019-May-23 03:01 008 13 gusting 23 16.1
2019-May-23 02:46 014 12 gusting 21 15.6
2019-May-23 02:31 359 10 gusting 19 16.1
2019-May-23 02:16 323 14 gusting 22 16.1
2019-May-23 02:01 359 13 gusting 20 16.1
2019-May-23 01:46 359 13 gusting 21 16.1
2019-May-23 01:31 330 12 gusting 22 16.1
2019-May-23 01:17 359 14 gusting 23 16.1
2019-May-23 01:01 023 12 gusting 24 16.1
2019-May-23 00:46 023 13 gusting 21 16.1
2019-May-23 00:31 004 12 gusting 19 16.1
2019-May-23 00:16 359 12 gusting 20 16.1
2019-May-23 00:01 010 12 gusting 21 16.1
2019-May-22 23:46 359 13 gusting 19 16.1
2019-May-22 23:30 328 14 gusting 20 15.6
2019-May-22 23:16 345 12 gusting 19 16.1
2019-May-22 23:01 004 11 gusting 20 16.1
2019-May-22 22:45 345 11 gusting 20 16.1
2019-May-22 22:30 344 8 gusting 19 16.7
2019-May-22 22:15 324 8 gusting 16 16.7
2019-May-22 22:00 343 11 gusting 19 16.7
2019-May-22 21:45 024 11 gusting 21 16.7
2019-May-22 21:30 010 10 gusting 19 16.7
2019-May-22 21:15 343 12 gusting 21 16.7
2019-May-22 21:00 338 10 gusting 19 16.1
2019-May-22 20:45 359 12 gusting 19 16.1
2019-May-22 20:30 345 12 gusting 17 16.7
2019-May-22 20:15 004 8 gusting 19 16.7
2019-May-22 20:00 330 10 gusting 16 16.7
2019-May-22 19:45 333 9 gusting 16 17.2
2019-May-22 19:30 359 11 gusting 22 17.2
2019-May-22 19:15 009 12 gusting 19 17.2
2019-May-22 19:00 023 12 gusting 21 17.2
2019-May-22 18:45 359 9 gusting 22 17.2
2019-May-22 18:30 347 10 gusting 17 17.8
2019-May-22 18:15 347 9 gusting 17 17.8
2019-May-22 18:00 320 10 gusting 19 17.8
2019-May-22 17:45 322 9 gusting 19 17.8
2019-May-22 17:02 359 8 gusting 21 17.8
2019-May-22 16:46 321 11 gusting 23 18.3
2019-May-22 16:30 315 10 gusting 20 18.9
2019-May-22 16:17 019 13 gusting 19 18.9
2019-May-22 16:01 328 10 gusting 25 19.4
2019-May-22 15:46 354 7 gusting 16 19.4
2019-May-22 15:31 315 6 gusting 16 19.4
2019-May-22 15:16 303 8 gusting 19 18.9
2019-May-22 15:01 319 9 gusting 16 19.4
2019-May-22 14:46 339 9 gusting 17 19.4
2019-May-22 14:31 285 8 gusting 17 19.4
2019-May-22 14:15 339 12 gusting 19 18.9
2019-May-22 14:01 320 13 gusting 20 18.9
2019-May-22 13:45 028 9 gusting 24 18.9
2019-May-22 13:31 341 15 gusting 23 18.9
2019-May-22 13:15 349 10 gusting 21 18.9
2019-May-22 13:01 048 11 gusting 20 18.9
2019-May-22 12:45 012 11 gusting 24 18.3
2019-May-22 12:31 287 9 gusting 19 19.4
2019-May-22 12:16 008 11 gusting 22 18.9
2019-May-22 12:00 359 13 gusting 22 18.3
2019-May-22 11:45 330 15 gusting 24 18.3
2019-May-22 11:31 010 16 gusting 26 18.3
2019-May-22 11:15 348 14 gusting 24 17.8
2019-May-22 11:01 327 16 gusting 22 17.8
2019-May-22 10:45 359 13 gusting 22 17.8
2019-May-22 10:30 344 11 gusting 19 17.8
2019-May-22 10:15 343 13 gusting 20 17.2
2019-May-22 10:00 341 8 gusting 15 17.2
2019-May-22 09:45 359 9 gusting 15 16.7
2019-May-22 09:30 004 10 gusting 15 16.1
2019-May-22 09:15 354 7 gusting 15 16.1
2019-May-22 09:00 350 7 gusting 13 16.1
2019-May-22 08:45 359 5 gusting 13 16.1
2019-May-22 08:30 012 4 gusting 11 15.6
2019-May-22 08:15 317 5 gusting 13 15.6
2019-May-22 08:00 344 4 gusting 13 15.6
2019-May-22 07:47 345 9 gusting 14 16.1
2019-May-22 07:32 359 5 gusting 13 16.1
2019-May-22 07:17 008 4 gusting 8 16.1
2019-May-22 07:02 331 3 gusting 11 16.1
2019-May-22 06:46 333 7 gusting 12 16.1
2019-May-22 06:33 359 6 gusting 13 16.1
2019-May-22 06:16 359 6 gusting 14 16.1
2019-May-22 06:01 335 6 gusting 12 16.1
2019-May-22 05:48 331 7 gusting 13 16.1
2019-May-22 05:31 341 6 gusting 13 16.1
2019-May-22 05:16 359 6 gusting 12 16.1
2019-May-22 05:01 326 6 gusting 11 16.1
2019-May-22 04:46 348 4 gusting 10 16.1
2019-May-22 04:32 341 5 gusting 11 16.1
2019-May-22 04:16 359 6 gusting 12 16.7
2019-May-22 04:01 354 8 gusting 12 16.7